[[{"header":{"parameterUnit":"m.s-1","parameterCategory":1,"la1":30.2991,"la2":30.254,"lo1":-89.0895,"lo2":-89.0444,"dy":0.0017,"dx":0.0017,"nx":28,"ny":28,"refTime":"2025-07-05T09:00:00:Z","depth":0,"parameterNumber":2,"parameterNumberName":"U-component_of_WINDS"},"data":[0,0,0,0,0,0,0,0,0,0,0,0,0,0,0,0,0,0,0,0,0,0,0,0,0,0,0,0,0,0,0,0,0,0,0,0,0,0,0,0,0,0,0,0,0,0,0,0,0,0,0,0,0,0,0,0,0,0,1.9023,1.9024,0,1.9107,1.9108,1.9109,1.9095,1.9093,1.9092,1.909,1.9176,1.918,1.9183,0,0,0,0,0,0,0,0,0,0,0,0,0,1.8848,1.8851,1.9023,1.9024,1.9025,1.9107,1.9108,1.9109,1.9095,1.9093,1.9091,1.909,1.9175,1.9179,1.9184,0,0,0,0,0,0,0,0,0,0,0,0,0,1.8927,1.8852,1.9022,1.9028,1.9029,1.9106,1.9108,1.9109,1.9095,1.9093,1.9091,1.9089,1.9174,1.9179,1.9184,1.9262,0,0,1.9201,1.9203,0,0,0,0,0,0,0,0,1.8923,1.8934,1.9026,1.9027,1.9029,1.9088,1.9078,1.916,1.9096,1.907,1.909,1.9088,1.9149,1.9156,1.9177,1.9266,1.927,1.9202,1.9205,1.9207,1.9209,0,0,0,0,0,0,0,1.8917,1.893,1.9056,1.9027,1.9029,1.9025,1.9034,1.9093,1.9121,1.9072,1.9071,1.9082,1.9149,1.9171,1.9179,1.9271,1.9201,1.9206,1.921,1.9212,1.9426,1.9428,0,0,0,0,0,0,1.891,1.8925,1.9053,1.9058,1.8969,1.903,1.904,1.9071,1.912,1.9125,1.9083,1.9081,1.9163,1.9172,1.9181,1.9274,1.9207,1.9212,1.9215,1.9423,1.9426,1.9429,0,0,0,0,0,0,1.8907,1.8922,1.905,1.8992,1.9008,1.9035,1.9071,1.9074,1.9096,1.9128,1.9133,1.9101,1.9162,1.9174,1.9241,1.9276,1.9215,1.922,1.942,1.9424,1.9427,1.946,0,0,0,0,0,0,1.8902,1.8921,1.8951,1.8993,1.9011,1.9109,1.9073,1.9077,1.9106,1.9103,1.9146,1.9151,1.9161,1.9233,1.9247,1.9283,1.9224,1.9417,1.9422,1.9426,1.9456,1.9464,1.9471,0,0,0,0,0,1.8896,1.8957,1.8953,1.8968,1.9049,1.9111,1.9122,1.9131,1.9109,1.9139,1.9159,1.915,1.9271,1.924,1.9256,1.9294,1.9415,1.9421,1.9426,1.9452,1.9462,1.9471,0,0,0,0,0,0,1.8919,1.8963,1.8958,1.9035,1.907,1.9109,1.9147,1.9142,1.9184,1.9179,1.919,1.9199,1.9268,1.9288,1.9253,1.937,1.934,1.9348,1.9354,1.9364,1.9372,1.9365,1.9229,0,0,0,0,0,1.8934,1.8981,1.9016,1.908,1.9098,1.9119,1.9147,1.9151,1.9187,1.9202,1.9227,1.9262,1.9307,1.9337,1.9381,1.9459,1.9467,1.9492,1.95,1.9506,1.9513,1.9553,1.9565,1.9446,1.9446,1.9446,0,0,1.8964,1.8993,1.9022,1.9086,1.9113,1.916,1.9132,1.9184,1.9219,1.921,1.9274,1.9294,1.9334,1.9406,1.9439,1.9425,1.9548,1.9513,1.9518,1.9521,1.956,1.9571,1.9581,1.945,1.9449,1.9449,0,0,1.9042,1.907,1.9125,1.9153,1.9194,1.9208,1.9221,1.9261,1.9273,1.9338,1.9332,1.9373,1.9452,1.948,1.9505,1.9591,1.9584,1.9606,1.9646,1.9685,1.9694,1.9702,1.9731,1.9742,1.9613,1.9613,1.9613,0,1.9073,1.9145,1.9154,1.9206,1.9234,1.9227,1.9283,1.9309,1.9363,1.9381,1.9365,1.9462,1.9488,1.9566,1.9587,1.9608,1.9622,1.96,1.9692,1.97,1.9708,1.9736,1.9747,1.9615,1.9615,1.9614,1.9614,0,1.9181,1.923,1.927,1.9321,1.9353,1.9407,1.9424,1.9455,1.9457,1.9472,1.9537,1.9569,1.9618,1.9637,1.9639,1.9714,1.9704,1.969,1.9659,1.9721,1.9748,1.9758,1.9618,1.9617,1.9617,1.9616,0,0,1.9277,1.9331,1.9345,1.9367,1.9412,1.945,1.9503,1.955,1.9576,1.9613,1.9656,1.9722,1.9709,1.9737,1.9742,1.9777,1.9841,1.9758,1.9759,1.977,1.9923,1.9932,1.9945,1.9836,1.9838,1.984,1.9919,0,1.9357,1.945,1.946,1.9543,1.9587,1.9581,1.9627,1.9658,1.9674,1.9714,1.9731,1.9776,1.9756,1.9772,1.9807,1.9826,1.9871,1.982,1.9875,1.9877,1.9864,1.9959,1.9969,2.0042,1.993,1.9931,1.9933,0,1.9464,1.9503,1.959,1.9626,1.9646,1.9686,1.973,1.9768,1.9803,1.9812,1.9842,1.9843,1.9896,1.9864,1.9936,1.9901,1.9924,1.9937,1.994,1.9944,1.9908,1.9964,2.0066,2.0076,1.9949,1.9948,1.9947,0,1.9523,1.9597,1.9658,1.9678,1.9722,1.975,1.977,1.9803,1.983,1.9868,1.9886,1.993,1.9953,1.9987,1.9998,1.9975,2.007,2.0039,2.0077,2.0077,2.0096,2.0095,2.0202,2.0114,2.0114,2.0114,2.0114,0,1.9611,1.9664,1.9685,1.9722,1.9781,1.9791,1.9848,1.9867,1.9896,1.9936,1.9934,1.9972,1.9985,2.0025,2.0034,2.0092,2.0103,2.011,2.0112,2.011,2.0108,2.0124,2.0118,2.0117,2.0116,2.0115,2.0115,0,1.9686,1.9702,1.9768,1.9804,1.9814,1.9856,1.9886,1.9922,1.9936,1.9987,1.9999,2.0022,2.0068,2.0083,2.014,2.0146,2.0212,2.021,2.02,2.02,2.0236,2.0232,2.0356,2.0371,2.0275,2.0276,2.0277,0,1.974,1.9781,1.9821,1.9847,1.9868,1.9911,1.9939,1.995,1.9978,2.002,2.005,2.0096,2.0133,2.0208,2.0229,2.0271,2.0269,2.031,2.0276,2.0271,2.0267,2.0264,2.0267,2.0316,2.0317,2.0317,2.0318,0,1.9834,1.984,1.988,1.9922,1.9955,1.9989,2.0022,2.0044,2.0059,2.0092,2.0139,2.0167,2.0224,2.0269,2.0312,2.0332,2.0327,2.0329,2.0339,2.0337,2.0328,2.0331,2.0216,2.0326,2.0325,2.0324,2.0324,2.0324,1.99,1.9934,1.9967,2.0011,2.0037,2.0067,2.0102,2.012,2.016,2.0206,2.0211,2.0261,2.0293,2.0351,2.0372,2.0411,2.0399,2.0416,2.0419,2.0423,2.0424,2.0323,2.0419,2.0419,2.0419,2.0419,2.0419,0,1.9992,2.0012,2.0053,2.0098,2.0132,2.0125,2.0161,2.019,2.0234,2.0265,2.0301,2.0354,2.0397,2.0421,2.0464,2.049,2.0489,2.0501,2.0499,2.0503,2.0433,2.0419,2.0501,2.0501,2.0501,2.0501,2.0501,2.0501,2.0044,2.0102,2.0111,2.0181,2.0201,2.025,2.0271,2.0298,2.0322,2.0382,2.0417,2.0433,2.046,2.0505,2.0544,2.055,2.0565,2.0578,2.0582,2.0516,2.0508,2.05,2.0486,2.0581,2.0581,2.0648,2.0649,2.0649]},{"header":{"parameterUnit":"m.s-1","parameterCategory":1,"la1":30.2991,"la2":30.254,"lo1":-89.0895,"lo2":-89.0444,"dy":0.0017,"dx":0.0017,"nx":28,"ny":28,"refTime":"2025-07-05T09:00:00:Z","depth":0,"parameterNumber":3,"parameterNumberName":"V-component_of_WINDS"},"data":[0,0,0,0,0,0,0,0,0,0,0,0,0,0,0,0,0,0,0,0,0,0,0,0,0,0,0,0,0,0,0,0,0,0,0,0,0,0,0,0,0,0,0,0,0,0,0,0,0,0,0,0,0,0,0,0,0,0,3.7251,3.7251,0,3.7269,3.7269,3.7269,3.7216,3.7215,3.7213,3.7211,3.7228,3.723,3.7232,0,0,0,0,0,0,0,0,0,0,0,0,0,3.7168,3.717,3.7251,3.7251,3.7251,3.7268,3.7269,3.7269,3.7216,3.7215,3.7213,3.7211,3.7227,3.723,3.7232,0,0,0,0,0,0,0,0,0,0,0,0,0,3.7197,3.7171,3.7251,3.7227,3.7225,3.7268,3.7269,3.7269,3.7217,3.7214,3.7212,3.721,3.7227,3.7229,3.7232,3.7299,0,0,3.7241,3.7242,0,0,0,0,0,0,0,0,3.7195,3.72,3.723,3.7229,3.7227,3.7238,3.7246,3.7279,3.7217,3.722,3.7211,3.7209,3.7233,3.7235,3.7244,3.7299,3.73,3.7241,3.7243,3.7244,3.7245,0,0,0,0,0,0,0,3.7193,3.7199,3.7258,3.7231,3.7229,3.7215,3.7216,3.7252,3.724,3.722,3.7216,3.7219,3.7232,3.7241,3.7244,3.73,3.7241,3.7244,3.7246,3.7247,3.7408,3.7411,0,0,0,0,0,0,3.7195,3.7197,3.7257,3.7258,3.7205,3.7218,3.722,3.7237,3.7239,3.7237,3.7221,3.7216,3.7237,3.724,3.7244,3.732,3.7244,3.7247,3.7249,3.7406,3.7409,3.7412,0,0,0,0,0,0,3.7193,3.7201,3.7256,3.7227,3.7233,3.7222,3.7242,3.7238,3.7248,3.724,3.7238,3.7233,3.7236,3.724,3.7285,3.732,3.7248,3.7251,3.7403,3.7407,3.741,3.7473,0,0,0,0,0,0,3.7191,3.72,3.7226,3.7228,3.7235,3.7298,3.7244,3.724,3.7253,3.7247,3.7251,3.7249,3.7234,3.7281,3.7288,3.7323,3.7253,3.7399,3.7404,3.7409,3.7468,3.7479,3.7488,0,0,0,0,0,3.7188,3.7244,3.7228,3.7235,3.7267,3.73,3.7304,3.7286,3.7256,3.7281,3.7276,3.7249,3.7315,3.7286,3.7293,3.7329,3.7397,3.7403,3.7409,3.7464,3.7477,3.7488,0,0,0,0,0,0,3.7247,3.7244,3.7226,3.7284,3.7293,3.7291,3.7323,3.7301,3.7318,3.7312,3.7288,3.7289,3.7338,3.7338,3.7306,3.7392,3.7351,3.7358,3.739,3.7403,3.7413,3.7411,3.7256,0,0,0,0,0,3.7266,3.7294,3.729,3.7341,3.7346,3.7334,3.7348,3.7333,3.7341,3.7344,3.7342,3.735,3.7373,3.7388,3.7408,3.7468,3.7467,3.7497,3.7507,3.7515,3.7521,3.755,3.7563,3.743,3.743,3.743,0,0,3.7307,3.7309,3.7328,3.7353,3.7358,3.7386,3.7337,3.737,3.739,3.7349,3.739,3.739,3.7397,3.7449,3.7472,3.7451,3.7558,3.7522,3.7529,3.7531,3.7558,3.757,3.7581,3.7434,3.7433,3.7433,0,0,3.7395,3.74,3.7442,3.7448,3.7456,3.7447,3.7457,3.7459,3.7457,3.7498,3.7467,3.7491,3.753,3.7536,3.7544,3.7633,3.7608,3.764,3.7692,3.7721,3.7731,3.774,3.777,3.7781,3.7647,3.7647,3.7647,0,3.7444,3.7486,3.7466,3.75,3.7511,3.7475,3.7517,3.7523,3.7538,3.7545,3.7522,3.7569,3.7572,3.7624,3.7645,3.7654,3.7663,3.7639,3.7732,3.774,3.7749,3.7776,3.7788,3.7651,3.765,3.765,3.7649,0,3.7545,3.7574,3.7607,3.7621,3.7636,3.7674,3.7658,3.7676,3.7659,3.7652,3.7694,3.7696,3.7715,3.7726,3.7711,3.7776,3.7762,3.7736,3.7693,3.7765,3.7791,3.7801,3.7656,3.7655,3.7654,3.7653,0,0,3.7671,3.7672,3.7685,3.7689,3.7695,3.7717,3.7752,3.7771,3.7785,3.7796,3.7823,3.7857,3.7832,3.7841,3.7826,3.7852,3.7919,3.7822,3.7821,3.7838,3.7987,3.8006,3.8019,3.7903,3.7905,3.7906,3.7986,0,3.7755,3.7816,3.7798,3.7858,3.7883,3.7849,3.7879,3.7885,3.788,3.79,3.7893,3.7917,3.7883,3.7888,3.7912,3.7906,3.7948,3.79,3.7927,3.7928,3.7924,3.8032,3.8053,3.8128,3.7996,3.7998,3.7999,0,3.7863,3.7877,3.7939,3.7939,3.7949,3.7976,3.799,3.8011,3.8016,3.801,3.802,3.7999,3.8032,3.799,3.8034,3.8002,3.8012,3.801,3.8013,3.8013,3.7967,3.8034,3.8151,3.8162,3.8015,3.8014,3.8013,0,3.7945,3.798,3.8021,3.8027,3.8028,3.8047,3.8048,3.8052,3.8063,3.8076,3.8083,3.8099,3.8108,3.8121,3.8104,3.8076,3.815,3.8108,3.8144,3.8145,3.816,3.8159,3.8279,3.817,3.817,3.817,3.8169,0,3.8041,3.8079,3.8058,3.8083,3.8125,3.8104,3.8146,3.8143,3.8146,3.8169,3.8141,3.8163,3.8141,3.816,3.8148,3.8185,3.819,3.8184,3.818,3.8186,3.8186,3.8191,3.8184,3.8173,3.8172,3.8171,3.8171,0,3.8139,3.8127,3.8169,3.8165,3.8166,3.8196,3.8193,3.8215,3.8208,3.8237,3.8243,3.823,3.8252,3.8237,3.8259,3.825,3.8298,3.8288,3.8296,3.8293,3.8329,3.8325,3.8455,3.847,3.8353,3.8354,3.8355,0,3.82,3.8229,3.8229,3.8242,3.8245,3.8267,3.8278,3.8258,3.8271,3.8279,3.83,3.8319,3.8333,3.8369,3.8361,3.8377,3.8366,3.841,3.8368,3.8372,3.8364,3.8362,3.8363,3.8418,3.8419,3.8421,3.8422,0,3.8309,3.83,3.8318,3.8333,3.8347,3.8358,3.8367,3.8379,3.8359,3.8375,3.8396,3.8407,3.8429,3.8447,3.846,3.8461,3.8437,3.8435,3.8444,3.8449,3.8452,3.8448,3.8317,3.8432,3.8431,3.843,3.8429,3.8429,3.8389,3.8412,3.8414,3.8434,3.8438,3.8447,3.8467,3.8461,3.8479,3.8494,3.8482,3.8507,3.851,3.8525,3.8528,3.8547,3.8529,3.8542,3.8545,3.8548,3.8552,3.845,3.8549,3.8549,3.8549,3.8549,3.8548,0,3.8494,3.8494,3.8512,3.8524,3.8539,3.8517,3.8524,3.8538,3.8561,3.8566,3.858,3.8604,3.8621,3.8615,3.863,3.8646,3.8636,3.8651,3.8648,3.8648,3.8569,3.8559,3.8659,3.8659,3.8659,3.8659,3.8659,3.8659,3.855,3.8587,3.8579,3.8617,3.8616,3.8641,3.8647,3.8654,3.8657,3.8685,3.8699,3.8695,3.8695,3.871,3.8724,3.8722,3.8728,3.8746,3.874,3.8665,3.8654,3.8644,3.8634,3.8749,3.8749,3.8818,3.8818,3.8819]}]]